User: anonymous   Login
Location: Unspecified
(43.4680°N, 87.1740°E)
Time: 13:06:58
(UTC+00:00)
Language:

IDEFIX/ARIANE 42P - Orbit

View from above orbital plane
View from above orbital plane
View from above satellite
View from above satellite

Ground track
Ground track

The orbit data is extracted from the following two-line orbital elements,

1 27422U 02021B   21173.84835509 -.00000004  00000-0  14815-4 0  9996
2 27422  98.4028 126.6525 0011369 212.6754 147.3726 14.29322439998076
Epoch (UTC): 22 June 2021 20:21:37
Eccentricity: 0.0011369
inclination: 98.4028°
perigee height: 786 km
apogee height: 802 km
right ascension of ascending node: 126.6525°
argument of perigee: 212.6754°
revolutions per day: 14.29322439
mean anomaly at epoch: 147.3726°
orbit number at epoch: 99807

The dashed part of the orbit path shows where the satellite is in the earth's shadow,  

DLR